EW7535 Weather Reports


Display with metric or nautical units.
time (UTC)temp
F
wind
direction
speed
MPH
gust
MPH
rain 1hr
in
rain 24hr
in
rain mn
in
humidity
%
barometer
mb
20260902154605 86 129 2.0 5.0 0.00 0.00 0.00 55 1011.7
20260902153058 86 194 0.0 3.0 0.00 0.00 0.00 55 1011.8
20260902151557 85 125 1.0 5.0 0.00 0.00 0.00 57 1011.8
20260902150054 84 135 0.0 4.0 0.00 0.00 0.00 57 1011.7
20260902144527 84 77 1.0 4.0 0.00 0.00 0.00 58 1011.8
20260902143020 84 92 0.0 3.0 0.00 0.00 0.00 60 1011.9
20260902141545 82 103 0.0 0.0 0.00 0.00 0.00 62 1011.7
20260902140040 80 103 0.0 0.0 0.00 0.00 0.00 65 1011.6
20260902134509 78 103 0.0 0.0 0.00 0.00 0.00 67 1011.4
20260902133009 76 103 0.0 0.0 0.00 0.00 0.00 70 1011.3
20260902131536 75 103 0.0 0.0 0.00 0.00 0.00 72 1011.2
20260902130034 75 103 0.0 0.0 0.00 0.00 0.00 74 1011.1
20260902124505 76 120 0.0 2.0 0.00 0.00 0.00 72 1011.1
20260902123006 76 100 0.0 3.0 0.00 0.00 0.00 72 1010.9
20260902121609 75 112 1.0 4.0 0.00 0.00 0.00 73 1010.9
20260902120057 75 114 0.0 0.0 0.00 0.00 0.00 74 1010.8
20260902114557 75 106 0.0 1.0 0.00 0.00 0.00 73 1010.8
20260902113104 75 101 0.0 2.0 0.00 0.00 0.00 73 1010.8
20260902111553 76 102 0.0 4.0 0.00 0.00 0.00 72 1010.8
20260902110055 76 113 0.0 4.0 0.00 0.00 0.00 71 1010.7
20260902104607 76 110 1.0 4.0 0.00 0.00 0.00 71 1010.9
20260902103101 76 102 0.0 4.0 0.00 0.00 0.00 71 1010.8
20260902101552 76 86 0.0 2.0 0.00 0.00 0.00 71 1010.9
20260902100048 76 88 0.0 0.0 0.00 0.00 0.00 71 1010.8
20260902094546 77 88 0.0 1.0 0.00 0.00 0.00 69 1010.7
20260902093045 77 104 0.0 2.0 0.00 0.00 0.00 68 1010.9
20260902091543 76 118 0.0 0.0 0.00 0.00 0.00 71 1010.9
20260902090041 77 103 0.0 0.0 0.00 0.00 0.00 71 1010.8
20260902084540 76 103 0.0 0.0 0.00 0.00 0.00 71 1010.8
20260902083049 77 103 0.0 0.0 0.00 0.00 0.00 71 1010.8
20260902081536 77 103 0.0 0.0 0.00 0.00 0.00 69 1010.7
20260902080030 78 103 0.0 0.0 0.00 0.00 0.00 68 1010.5
20260902074529 78 103 0.0 2.0 0.00 0.00 0.00 66 1010.5
20260902073030 78 103 0.0 0.0 0.00 0.00 0.00 66 1010.6
20260902071527 79 107 0.0 0.0 0.00 0.00 0.00 66 1010.7
20260902070024 79 77 0.0 0.0 0.00 0.00 0.00 65 1010.6
20260902064523 79 102 0.0 2.0 0.00 0.00 0.00 65 1010.5
20260902063023 78 115 0.0 0.0 0.00 0.00 0.00 66 1010.4
20260902061538 79 115 0.0 0.0 0.00 0.00 0.00 64 1010.4
20260902060020 79 115 0.0 0.0 0.00 0.00 0.00 63 1010.4
20260902054526 80 115 0.0 1.0 0.00 0.00 0.00 62 1010.5
20260902053020 82 100 0.0 1.0 0.00 0.00 0.00 59 1010.4
20260902051519 82 88 0.0 2.0 0.00 0.00 0.00 56 1010.5
20260902050017 83 110 0.0 2.0 0.00 0.00 0.00 55 1010.6
20260902044524 83 64 1.0 4.0 0.00 0.00 0.00 55 1010.5
20260902043017 82 297 0.0 0.0 0.00 0.00 0.00 58 1010.5
20260902041516 83 297 0.0 0.0 0.00 0.00 0.00 57 1010.3
20260902040013 84 305 1.0 5.0 0.00 0.00 0.00 55 1010.2
20260902034513 84 304 1.0 4.0 0.00 0.00 0.00 55 1010.0
20260902033011 84 305 2.0 5.0 0.00 0.00 0.00 53 1009.7
20260902031518 85 302 2.0 6.0 0.00 0.00 0.00 52 1009.4
20260902030009 84 299 3.0 5.0 0.00 0.00 0.00 54 1009.1
20260902024510 85 300 3.0 4.0 0.00 0.00 0.00 53 1008.8
20260902023023 85 303 2.0 4.0 0.00 0.00 0.00 54 1008.7
20260902021508 86 278 2.0 4.0 0.00 0.00 0.00 51 1008.5
20260902020008 87 299 3.0 7.0 0.00 0.00 0.00 48 1008.3
20260902014509 88 300 4.0 7.0 0.00 0.00 0.00 46 1008.2
20260902013002 89 293 4.0 10.0 0.00 0.00 0.00 44 1008.2
20260902011503 90 295 6.0 11.0 0.00 0.00 0.00 44 1008.2
20260902010059 90 290 5.0 10.0 0.00 0.00 0.00 44 1008.2
20260902004559 91 277 5.0 11.0 0.00 0.00 0.00 44 1008.2
20260902003104 91 309 4.0 11.0 0.00 0.00 0.00 44 1008.3
20260902001559 91 275 5.0 11.0 0.00 0.00 0.00 43 1008.4
20260902000056 92 283 7.0 12.0 0.00 0.00 0.00 42 1008.5
20260901234559 92 238 7.0 12.0 0.00 0.00 0.00 43 1008.7
20260901233050 92 293 4.0 11.0 0.00 0.00 0.00 41 1008.9
20260901231606 92 285 6.0 11.0 0.00 0.00 0.00 41 1009.0
20260901230046 93 297 4.0 9.0 0.00 0.00 0.00 41 1009.0
20260901224542 92 278 2.0 10.0 0.00 0.00 0.00 43 1009.2
20260901223041 92 264 5.0 9.0 0.00 0.00 0.00 43 1009.3
20260901221604 91 287 2.0 8.0 0.00 0.00 0.00 44 1009.6
20260901220042 91 264 5.0 9.0 0.00 0.00 0.00 43 1009.7
20260901214531 93 276 1.0 6.0 0.00 0.00 0.00 42 1010.0
20260901213028 94 260 0.0 5.0 0.00 0.04 0.00 40 1010.3
20260901211527 93 285 0.0 3.0 0.00 0.04 0.00 42 1010.6
20260901210029 91 274 3.0 8.0 0.00 0.04 0.00 42 1010.8
20260901204521 91 286 3.0 8.0 0.00 0.04 0.00 43 1011.0
20260901203017 90 294 6.0 10.0 0.00 0.14 0.00 43 1011.3
20260901201515 91 298 3.0 5.0 0.00 0.14 0.00 45 1011.5
20260901200025 90 281 4.0 6.0 0.00 0.14 0.00 44 1011.7
20260901194511 91 259 1.0 3.0 0.00 0.14 0.00 45 1012.0
20260901193010 90 252 1.0 5.0 0.00 0.24 0.00 46 1012.2
20260901191518 88 257 0.0 3.0 0.00 0.24 0.00 44 1012.4
20260901190005 91 271 0.0 4.0 0.00 0.24 0.00 46 1012.6
20260901184504 88 289 0.0 4.0 0.00 0.24 0.00 48 1012.8
20260901183001 87 262 0.0 3.0 0.00 0.39 0.00 49 1012.9
20260901181501 88 281 0.0 0.0 0.00 0.39 0.00 46 1013.0
20260901180059 88 181 0.0 4.0 0.00 0.39 0.00 48 1013.1
20260901174528 88 96 0.0 3.0 0.00 0.39 0.00 47 1013.2
20260901173025 87 176 0.0 0.0 0.00 0.47 0.00 50 1013.2
20260901171520 86 172 0.0 3.0 0.00 0.47 0.00 53 1013.3
20260901170019 85 263 0.0 3.0 0.00 0.47 0.00 50 1013.3
20260901164517 84 160 0.0 3.0 0.00 0.47 0.00 55 1013.3
20260901163014 83 115 0.0 2.0 0.00 0.47 0.00 60 1013.2
20260901161523 83 119 1.0 4.0 0.00 0.47 0.00 58 1013.3
20260901160009 83 148 0.0 4.0 0.00 0.47 0.00 61 1013.4